Terminal Aerodrome Forecast
Issued by NWS Central Illinois

Home | Current Version | Previous Version | Text Only | Print | Product List | Glossary On
Versions: 1 2 3 4 5 6 7 8 9 10 11 12 13 14 15 16 17
000
FTUS43 KILX 232100 AAA
TAFPIA
TAF AMD
KPIA 232104Z 2321/2418 04010G15KT P6SM SCT045
     FM232300 05007KT P6SM FEW045
     FM240100 06004KT P6SM SKC
     FM241500 06006KT P6SM FEW040=

USA.gov is the U.S. government's official web portal to all federal, state and local government web resources and services.